Lid_Strength_Index
7 11 12 11 10 9 9 11 11 10 8 10 10 10 9 7 7 8 6 6 6 5 4 3 3 2 2 2 2 2 2 1 1 1 2 2 2 1 2 1 1 0 0 0
9 11 9 8 8 9 9 10 11 10 8 9 10 10 8 8 8 7 6 7 6 6 5 4 3 3 2 3 2 2 2 2 1 1 1 1 1 1 1 1 2 1 0 0
11 9 7 8 9 9 10 11 11 11 9 9 10 11 10 7 7 6 6 6 6 5 6 5 4 4 4 4 2 2 2 2 1 1 1 1 1 1 1 1 1 1 1 2
10 7 7 9 9 9 12 9 9 10 11 14 10 15 10 9 9 7 7 7 6 5 5 5 5 4 3 2 1 2 1 1 1 1 1 2 2 3 2 1 1 1 1 2
10 9 9 9 9 8 10 8 10 10 12 14 12 15 13 9 10 9 7 6 6 6 6 5 4 3 2 2 2 2 1 1 1 1 1 2 2 2 1 1 1 2 1 1
8 6 8 8 7 7 7 10 11 12 13 16 14 14 14 12 10 9 7 6 5 5 5 5 4 4 3 2 2 2 2 2 1 1 1 2 2 2 2 2 2 2 1 1
8 8 8 7 9 8 9 13 17 18 17 17 11 13 14 10 8 8 8 7 6 5 6 5 4 4 3 3 3 2 2 3 2 1 2 1 2 2 2 2 2 2 2 1
13 13 8 7 9 11 12 13 17 20 19 17 11 15 13 9 7 6 6 6 5 6 6 5 4 4 3 3 2 3 3 2 2 2 2 1 1 1 1 1 1 1 1 1
13 12 7 7 7 9 11 14 11 15 14 17 14 12 10 8 8 7 7 6 6 6 5 5 4 3 3 3 3 2 2 2 2 2 2 2 1 1 1 1 2 1 1 1
10 14 8 7 6 8 10 9 15 14 19 20 15 14 14 10 10 8 8 7 6 5 5 5 4 4 3 3 2 2 2 2 2 2 2 2 2 1 1 1 1 2 2 2
9 12 11 8 10 11 12 13 12 13 14 19 19 16 10 9 9 9 8 7 6 7 6 5 4 4 3 2 3 2 2 2 2 2 2 2 1 1 1 2 2 2 3 3
9 12 15 12 9 8 10 12 12 16 16 14 16 15 8 9 7 7 7 6 6 6 5 5 4 4 3 3 3 3 2 2 2 2 2 2 2 1 1 2 2 3 4 3
10 14 18 15 11 9 11 10 10 12 13 16 18 15 7 7 7 7 8 7 6 6 5 4 4 4 4 4 4 4 4 3 2 2 3 3 3 2 2 2 3 3 4 4
8 13 15 17 14 11 12 10 9 11 16 14 13 12 10 9 9 8 7 7 7 6 6 5 5 5 6 5 5 5 5 4 3 2 3 4 3 2 2 3 4 4 4 5
10 14 12 11 10 10 10 10 10 11 12 15 12 12 10 9 8 8 7 7 7 6 5 5 5 6 7 6 6 5 5 5 4 3 3 3 3 1 2 3 4 5 5 6
9 15 13 13 10 10 11 10 9 9 9 10 10 12 8 7 7 7 7 6 6 6 5 5 5 6 6 6 6 6 6 6 5 3 3 2 2 3 4 4 5 5 6 7
12 13 14 16 11 12 15 11 10 9 9 10 14 12 8 8 8 7 7 6 6 6 5 5 6 6 6 6 6 7 6 6 5 4 3 3 3 4 5 6 6 7 7 8
12 13 13 17 14 21 11 8 8 9 9 9 9 9 8 8 7 6 6 6 6 5 6 5 6 7 7 6 6 6 5 5 5 4 3 3 4 6 7 7 8 8 8 8
9 12 15 18 18 13 11 9 10 11 12 8 9 8 7 7 7 7 5 5 5 5 5 5 6 6 7 6 6 5 5 5 5 4 4 5 6 8 8 8 8 8 8 8
8 10 14 16 19 19 11 8 6 7 15 8 8 8 8 8 12 9 6 5 5 5 6 5 7 7 7 7 6 5 5 5 5 5 6 7 7 8 8 8 8 8 8 8
13 13 15 15 17 14 8 7 6 15 14 8 7 8 8 10 8 6 5 5 5 6 5 7 8 8 8 7 6 6 6 5 6 6 6 7 7 7 7 8 8 8 8 8
13 15 15 15 17 18 6 7 12 9 7 7 7 7 7 7 6 6 6 6 6 6 6 8 9 9 8 7 6 7 6 6 6 7 7 7 8 8 8 8 8 7 7 6
14 12 14 12 13 8 7 7 6 6 7 7 7 6 7 7 6 5 7 7 7 6 8 8 9 9 9 7 7 7 6 6 7 7 8 8 8 8 7 6 4 4 4 4
9 7 11 11 10 8 7 6 6 6 6 5 5 6 5 6 5 6 7 8 8 7 9 9 9 10 9 7 6 6 6 6 7 8 8 8 8 8 7 5 6 6 6 7
9 9 10 10 8 7 7 6 6 5 5 6 6 6 6 6 7 8 8 9 7 9 9 9 10 9 8 7 6 6 7 7 8 9 9 8 6 7 7 8 8 8 10 8
8 10 12 12 8 8 7 6 5 6 6 6 6 6 6 7 8 8 8 8 10 10 10 10 9 8 7 7 7 7 7 8 8 9 8 5 6 7 8 9 9 8 8 8